Temperature
18 18 18 18 18 18 18 18 18 18 18 18 18 18 18 18 18 18 18 18 18 17 17 17 17 17 17 17 17 17 16 16 16 16 16 16 16 16 16 16 16 16 15
18 18 18 18 18 18 18 18 18 18 18 18 18 18 18 18 18 18 18 18 17 17 17 17 17 17 17 17 17 17 16 16 16 16 16 16 16 16 16 16 16 16 15
18 18 18 18 18 18 18 18 18 18 18 18 18 18 18 18 18 18 18 18 17 17 17 17 17 17 17 17 17 17 17 17 16 16 16 16 16 16 16 16 16 16 16
18 18 18 18 18 18 18 18 18 18 18 18 18 18 18 18 18 18 18 17 17 17 17 17 17 17 17 17 17 17 17 17 17 16 16 16 16 16 16 16 16 16 16
18 18 18 18 18 18 18 18 18 18 18 18 18 18 18 18 18 18 18 18 17 17 17 17 17 17 17 17 17 17 17 17 17 17 16 16 16 16 16 16 16 16 16
18 18 18 18 18 18 18 18 18 18 18 18 18 18 18 18 18 18 18 17 17 17 17 17 17 17 17 17 17 17 17 17 17 17 17 16 16 16 16 16 16 16 15
18 18 18 18 18 18 18 18 18 18 18 18 18 18 18 18 18 18 18 18 18 17 17 17 17 17 17 17 17 17 17 17 17 17 17 16 16 16 16 16 16 16 15
18 18 18 18 18 18 18 18 18 18 18 18 18 18 17 18 18 18 18 18 18 18 17 17 17 17 17 17 17 17 17 17 17 17 17 16 16 16 16 16 16 16 16
18 18 18 18 18 18 18 18 18 18 18 18 18 17 17 17 18 18 18 18 18 18 18 17 17 17 17 17 17 17 17 17 17 17 16 16 16 16 16 16 16 16 16
18 18 18 18 18 18 18 18 18 18 18 18 18 17 17 17 17 18 18 18 18 18 18 17 17 17 17 17 17 17 17 17 17 17 16 16 16 16 16 16 16 16 15
18 18 18 18 18 18 18 18 18 18 18 17 17 17 17 17 17 17 17 18 18 18 18 17 17 17 17 17 17 17 17 17 17 16 16 16 16 16 16 15 15 15 15
18 18 18 18 18 18 18 18 18 18 17 17 17 17 17 17 17 17 17 17 17 17 17 17 17 17 17 17 17 17 17 16 16 16 16 16 16 16 16 15 15 15 15
18 18 18 18 18 18 18 18 18 18 17 17 17 17 17 17 17 17 17 17 17 17 17 17 17 17 17 17 17 16 16 16 16 16 16 16 16 16 15 15 15 15 15
18 18 18 18 18 18 18 18 18 18 17 17 17 17 17 17 17 17 17 16 16 16 17 17 17 17 16 16 16 16 16 16 16 16 16 15 15 15 15 15 15 15 15
17 17 17 17 17 17 17 17 17 17 17 17 17 17 17 17 17 16 16 16 16 16 16 16 16 16 16 16 16 16 16 16 15 15 15 15 15 15 15 15 15 15 14
17 17 17 17 17 17 17 17 17 17 17 16 16 16 16 16 16 16 16 16 16 16 16 16 16 16 16 16 15 15 15 15 15 15 15 15 15 14 14 14 14 14 14
17 17 17 17 17 17 16 16 16 16 16 16 16 16 16 16 16 16 16 16 16 16 15 15 15 15 15 15 15 15 15 15 14 14 14 14 14 14 14 14 14 13 13
17 17 17 17 16 16 16 16 16 16 16 16 16 15 15 15 15 15 15 15 15 15 15 15 15 15 15 14 14 14 14 14 14 14 14 13 13 13 13 13 13 13 13
17 17 16 16 16 16 16 16 15 15 15 15 15 15 15 15 15 15 15 15 15 15 15 15 14 14 14 14 14 14 14 13 13 13 13 13 13 13 13 12 12 12 12
16 16 16 16 16 15 15 15 15 15 15 14 14 14 14 15 14 14 14 14 14 14 14 14 14 13 13 13 13 13 13 12 12 12 12 12 12 12 12 12 12 11 11
16 16 15 15 15 15 15 15 14 14 14 14 14 14 14 14 14 14 14 14 14 14 14 13 13 13 13 12 12 12 12 12 12 11 11 11 11 11 11 11 11 11 11
15 15 15 15 15 15 14 14 14 14 14 14 14 14 13 13 13 13 13 13 13 13 13 13 13 12 12 12 12 12 11 11 11 11 11 11 11 11 10 10 10 10 10
15 15 14 14 14 14 14 14 13 14 13 13 13 13 13 13 13 13 13 13 13 12 12 12 12 12 12 11 11 11 11 11 11 10 10 10 10 10 10 10 9 9 9
14 14 14 14 14 13 13 13 13 13 13 12 12 12 12 12 12 12 12 12 12 12 12 11 11 11 11 11 11 11 11 11 10 10 10 10 9 9 9 9 9 9 9
14 14 13 13 13 13 13 13 12 12 12 12 12 11 11 11 11 11 12 12 11 11 11 11 11 11 11 11 10 10 10 10 10 9 9 9 9 9 9 9 9 8 8
13 13 13 13 12 12 12 12 12 12 12 11 11 11 11 11 11 11 11 11 11 10 10 10 10 10 10 10 10 10 10 10 9 9 9 9 9 8 8 8 8 8 8
Wind_Speed
5 5 5 5 5 5 5 4 4 4 3 3 3 7 8 10 12 12 12 15 14 14 14 13 13 12 12 11 11 11 11 11 11 11 10 10 10 10 10 9 9 9 9
6 5 4 4 5 6 6 6 5 3 2 2 2 6 8 10 11 12 13 14 15 15 14 14 14 13 13 12 12 12 12 11 11 12 11 11 10 10 10 10 10 9 9
8 5 4 3 5 6 6 4 3 1 1 1 2 3 6 8 10 12 13 13 14 15 15 15 15 15 14 14 13 13 13 12 12 12 13 12 12 11 11 11 11 10 10
8 6 3 3 4 5 4 2 2 1 1 1 1 2 3 5 8 11 12 13 13 13 15 17 17 16 16 15 15 14 14 14 14 13 13 13 13 13 13 13 12 12 12
9 7 4 4 5 3 2 3 2 2 2 2 2 2 2 4 5 9 9 12 14 14 15 17 18 18 17 16 16 16 16 15 15 15 14 14 14 14 14 14 13 13 13
8 7 5 4 4 3 3 2 2 2 2 2 2 1 2 3 4 5 7 10 12 14 16 15 15 16 18 18 17 17 17 17 17 17 16 16 16 15 15 15 15 14 14
7 6 4 3 4 4 4 4 3 2 2 1 1 2 3 2 3 4 4 6 8 12 14 15 14 14 14 18 19 19 18 18 18 18 18 18 17 17 17 17 16 16 15
7 7 5 4 4 3 3 3 3 2 2 2 3 1 2 4 3 4 3 5 5 7 9 13 12 13 14 14 17 20 20 19 19 19 19 19 19 19 19 18 18 17 17
7 7 7 5 4 4 4 5 4 4 3 2 3 4 3 4 3 3 3 4 4 4 5 9 11 13 14 13 13 17 20 20 19 19 19 20 19 20 19 18 18 18 18
6 7 6 6 5 4 5 5 5 4 4 3 2 3 3 4 3 2 3 3 4 5 6 6 9 11 13 12 13 15 18 19 19 19 18 19 19 19 19 19 19 18 18
4 5 6 5 5 4 5 5 4 4 4 4 4 3 2 2 2 3 3 3 3 3 4 5 5 8 10 12 11 13 16 18 18 18 17 17 18 19 19 18 18 18 18
2 3 4 3 4 4 4 4 4 5 5 5 4 4 3 3 3 3 4 3 3 3 2 3 4 5 9 10 12 13 14 15 16 17 17 17 16 16 16 16 16 16 16
2 2 2 1 1 2 3 3 4 4 4 4 4 4 3 4 3 3 3 3 3 2 1 2 3 4 6 8 10 12 12 13 14 15 15 15 14 14 14 14 14 14 14
2 1 1 1 1 2 2 2 2 3 3 3 4 3 3 3 3 4 4 3 3 2 2 3 2 2 3 5 7 9 8 10 12 12 12 12 12 12 12 12 12 13 12
1 1 1 1 1 0 0 1 1 1 1 2 2 2 2 2 3 3 3 4 4 4 3 2 1 1 1 2 3 4 5 6 8 10 10 9 9 9 8 8 9 9 8
2 2 2 2 2 1 1 0 0 0 0 1 1 1 1 2 2 1 2 2 3 4 3 2 1 1 1 2 2 4 4 5 5 6 7 6 6 5 5 5 5 5 5
3 4 3 3 3 3 2 2 2 2 2 1 1 1 1 1 1 1 1 1 1 2 3 2 1 0 1 1 3 4 4 4 4 5 4 5 5 4 4 4 4 3 3
4 4 4 4 4 4 3 3 3 3 3 2 2 1 2 1 1 1 1 1 1 1 2 2 1 0 1 1 2 2 4 4 5 6 7 6 6 5 4 4 4 4 4
6 5 6 6 5 5 4 4 3 4 3 3 3 3 3 2 2 2 1 1 0 0 1 2 0 1 1 1 2 2 3 3 4 5 7 7 7 7 6 6 6 5 5
6 6 6 6 5 5 5 5 5 5 5 6 5 4 4 4 3 2 2 2 1 2 2 2 1 1 1 1 2 2 2 2 2 3 5 6 7 7 6 6 6 5 5
7 6 6 7 6 5 5 5 5 6 6 6 6 5 6 8 8 5 4 3 2 2 2 3 2 2 1 1 1 1 2 1 2 2 2 3 4 5 5 5 5 5 4
7 7 7 7 7 6 8 9 7 5 5 6 6 5 6 7 9 11 11 10 7 5 3 3 2 1 0 0 1 1 2 1 1 1 2 2 2 2 2 3 3 4 4
7 8 7 7 7 7 9 9 9 6 6 6 5 5 6 7 8 6 9 12 12 11 7 3 2 1 0 1 1 2 2 2 1 1 2 2 2 2 2 2 2 3 3
7 7 7 7 7 8 10 10 10 8 8 7 7 6 6 6 6 6 7 8 9 9 8 6 4 3 2 1 2 2 3 3 3 2 2 2 1 1 2 2 2 2 3
7 6 6 7 7 7 9 10 9 7 7 8 7 7 7 6 9 9 8 8 8 8 11 13 12 11 12 11 8 5 4 4 3 2 2 2 1 1 2 2 3 2 3
7 7 7 7 7 6 8 9 8 6 6 6 6 7 10 9 9 9 7 7 8 5 6 8 10 11 11 11 11 6 4 3 2 1 2 2 1 1 2 2 2 2 2
Wind_Direction
171 174 183 191 205 206 203 211 228 243 242 223 175 158 158 160 161 164 171 174 174 174 174 174 175 175 178 177 177 179 180 179 177 176 176 175 173 171 169 169 169 167 164
169 171 181 191 204 205 205 204 208 208 221 196 173 169 164 164 170 171 175 180 184 185 185 184 185 185 188 189 189 190 189 188 187 188 188 188 187 185 183 182 181 181 179
171 170 172 190 202 202 193 189 201 184 219 207 169 169 168 167 172 178 182 184 190 195 196 196 196 196 197 197 197 197 197 196 196 197 197 197 197 196 195 193 192 192 190
174 165 174 199 201 185 175 173 177 158 194 185 192 186 175 169 180 185 187 191 194 200 206 207 206 205 206 205 204 204 204 204 204 204 204 205 205 205 204 204 203 201 201
178 172 181 201 194 176 177 193 174 168 186 210 223 208 201 191 189 193 195 199 202 206 208 213 213 211 213 213 213 211 210 210 209 210 210 211 212 211 210 210 210 210 211
182 181 188 200 183 170 180 182 172 177 193 202 230 241 243 226 204 200 203 203 208 212 212 212 214 216 218 219 219 217 217 215 213 214 214 215 215 215 214 214 215 217 217
187 185 193 189 182 181 188 184 172 178 205 170 93 337 320 281 233 217 208 201 209 214 210 210 212 215 220 224 225 224 224 222 219 218 218 218 218 218 217 218 219 220 222
199 199 195 193 190 183 188 192 177 176 215 166 147 129 321 322 295 243 220 211 212 208 206 207 206 212 218 220 225 226 225 225 225 225 224 223 221 220 220 221 222 223 223
207 203 198 195 197 190 197 204 193 184 206 219 172 159 174 230 277 293 241 220 213 208 208 204 207 214 215 216 222 225 225 226 226 228 229 227 224 224 221 222 223 224 225
213 211 205 198 201 199 202 212 198 191 184 209 222 209 197 180 191 275 293 251 225 216 215 213 208 211 213 214 218 219 222 223 225 228 229 227 226 225 224 224 228 229 229
231 222 216 204 206 206 209 214 205 198 193 200 207 208 218 219 197 199 260 280 275 238 213 207 204 205 207 210 217 223 226 225 224 225 227 228 229 229 228 229 231 231 230
264 243 227 211 212 210 215 218 213 209 208 210 212 204 197 199 210 203 229 249 258 267 226 205 200 207 209 210 218 220 222 224 225 225 225 229 231 231 229 229 232 233 232
256 264 252 228 228 219 219 212 213 220 212 215 218 219 213 216 206 205 217 236 248 264 260 236 221 211 211 210 217 220 218 218 222 223 224 225 227 228 229 229 230 231 230
227 240 218 181 203 199 218 211 218 229 218 223 231 219 219 230 218 213 210 210 244 270 264 252 249 226 215 204 210 211 213 212 215 216 219 223 224 225 226 229 229 229 229
169 109 134 142 117 105 140 201 220 235 212 230 239 231 232 245 240 234 223 204 203 237 262 255 262 307 208 175 190 181 191 196 201 208 211 214 218 221 220 221 222 220 216
68 71 84 86 75 49 25 67 356 339 138 265 249 251 271 276 279 271 251 233 204 207 236 244 230 244 68 112 122 135 150 152 158 181 192 198 207 211 209 205 199 198 202
75 72 73 78 69 55 45 54 46 51 60 17 7 13 310 311 304 310 286 262 237 198 220 253 238 267 91 87 88 104 104 105 112 128 148 164 178 185 184 183 178 176 187
70 68 63 66 65 60 54 58 51 43 48 46 18 356 311 326 349 334 323 286 252 206 190 215 286 40 71 111 112 105 96 99 95 96 104 108 116 118 117 131 143 148 149
69 64 64 64 60 54 51 51 60 53 53 44 31 25 6 31 18 352 6 5 315 64 148 160 217 47 55 84 78 78 75 74 88 94 91 94 101 109 113 116 117 124 127
74 66 64 63 61 56 53 54 60 63 58 49 41 40 35 36 23 11 31 37 69 77 85 106 103 67 58 65 94 89 59 36 58 74 79 85 92 96 99 105 111 117 118
74 69 67 61 55 54 52 56 59 68 61 52 41 41 48 51 49 49 55 50 66 78 80 86 81 58 35 56 105 132 128 94 49 56 73 69 78 74 72 82 100 116 124
72 70 66 64 57 53 53 59 68 69 65 59 50 41 45 46 49 54 58 59 66 81 90 89 84 86 35 271 182 135 133 124 87 44 85 66 72 63 53 70 91 112 120
76 74 68 65 61 50 55 60 67 71 66 58 53 47 50 47 46 48 56 57 54 57 70 102 95 79 151 251 155 123 118 118 120 169 103 72 42 50 43 65 89 113 119
82 79 73 65 62 53 57 61 68 69 65 54 51 53 55 41 45 56 62 56 48 38 44 56 69 50 46 62 118 126 121 95 66 45 65 86 34 31 33 43 63 104 116
87 80 74 68 66 51 52 62 71 72 66 52 46 49 54 52 48 62 69 65 56 40 46 57 59 57 57 63 79 91 86 93 72 11 17 89 81 31 14 3 29 59 87
96 87 70 61 63 54 51 65 77 80 73 60 47 40 46 53 54 62 72 74 68 45 43 45 44 43 45 50 56 67 89 96 86 35 345 76 76 65 31 346 357 23 51
Height
1569 1571 1571 1572 1573 1574 1575 1576 1576 1576 1577 1577 1578 1578 1578 1578 1579 1579 1579 1579 1580 1580 1580 1581 1581 1582 1583 1583 1584 1584 1585 1586 1586 1587 1587 1588 1589 1589 1590 1590 1591 1592 1592
1569 1570 1571 1572 1573 1574 1575 1575 1576 1577 1577 1578 1578 1578 1578 1579 1579 1579 1580 1580 1580 1580 1580 1581 1581 1582 1582 1583 1584 1584 1585 1585 1586 1587 1587 1588 1588 1589 1589 1590 1591 1591 1592
1569 1570 1571 1571 1572 1573 1574 1575 1576 1576 1577 1577 1578 1578 1578 1578 1579 1579 1579 1580 1580 1580 1580 1581 1581 1581 1582 1582 1583 1583 1584 1584 1585 1586 1586 1587 1588 1588 1589 1589 1590 1590 1591
1568 1569 1570 1571 1572 1572 1573 1574 1575 1575 1576 1576 1577 1577 1577 1578 1578 1578 1579 1579 1579 1579 1579 1580 1580 1581 1581 1581 1582 1582 1583 1583 1584 1585 1585 1586 1586 1587 1588 1588 1589 1589 1590
1567 1568 1568 1569 1570 1571 1572 1573 1574 1574 1575 1575 1576 1576 1576 1576 1577 1577 1577 1577 1578 1578 1578 1579 1579 1579 1580 1580 1581 1581 1582 1582 1582 1583 1583 1584 1585 1585 1586 1587 1587 1588 1588
1565 1566 1567 1568 1569 1570 1571 1571 1572 1573 1573 1574 1574 1574 1575 1575 1575 1575 1575 1576 1576 1576 1576 1577 1577 1578 1578 1578 1579 1579 1580 1580 1580 1581 1581 1582 1583 1583 1584 1585 1585 1586 1586
1563 1565 1565 1566 1567 1568 1569 1570 1571 1571 1572 1573 1573 1573 1573 1573 1573 1573 1573 1573 1573 1574 1574 1574 1575 1575 1576 1576 1576 1577 1577 1577 1578 1578 1579 1579 1580 1581 1581 1582 1583 1583 1584
1561 1562 1564 1564 1565 1566 1567 1568 1569 1569 1570 1571 1571 1571 1571 1571 1570 1570 1571 1571 1571 1571 1571 1572 1572 1572 1573 1573 1573 1574 1574 1574 1575 1575 1576 1576 1577 1578 1578 1579 1580 1580 1581
1559 1560 1561 1563 1564 1564 1565 1566 1566 1567 1567 1568 1568 1569 1568 1567 1567 1568 1567 1568 1568 1568 1568 1568 1569 1569 1570 1570 1570 1570 1571 1571 1572 1572 1572 1573 1573 1574 1575 1576 1576 1577 1577
1557 1558 1559 1560 1561 1561 1562 1563 1564 1564 1564 1565 1566 1566 1566 1566 1566 1564 1565 1565 1565 1564 1565 1565 1565 1566 1566 1566 1567 1567 1567 1568 1568 1568 1569 1569 1570 1570 1571 1572 1573 1573 1574
1555 1556 1557 1557 1558 1558 1559 1560 1560 1561 1561 1562 1562 1562 1563 1563 1563 1563 1561 1561 1561 1561 1561 1562 1562 1562 1562 1563 1563 1563 1564 1564 1564 1565 1565 1565 1566 1566 1567 1568 1568 1569 1569
1553 1554 1554 1555 1555 1555 1556 1556 1557 1557 1558 1558 1559 1559 1559 1559 1559 1559 1559 1558 1558 1558 1558 1558 1558 1558 1558 1558 1558 1559 1559 1559 1560 1561 1561 1561 1561 1562 1563 1563 1564 1564 1565
1551 1552 1552 1552 1552 1552 1553 1553 1553 1553 1554 1554 1554 1555 1555 1555 1556 1556 1556 1555 1554 1554 1554 1554 1554 1554 1554 1554 1554 1555 1555 1555 1555 1556 1556 1556 1557 1558 1558 1559 1559 1560 1560
1549 1549 1550 1549 1549 1549 1549 1550 1550 1550 1550 1550 1550 1551 1551 1551 1551 1551 1551 1552 1551 1550 1550 1550 1551 1551 1550 1550 1550 1551 1550 1550 1551 1551 1551 1552 1552 1553 1554 1554 1554 1555 1555
1547 1547 1547 1547 1547 1547 1547 1546 1546 1546 1546 1546 1546 1546 1546 1547 1547 1547 1547 1547 1548 1546 1546 1546 1546 1546 1547 1547 1547 1547 1546 1546 1546 1547 1547 1548 1548 1549 1549 1550 1550 1550 1551
1546 1545 1545 1545 1545 1545 1544 1544 1544 1543 1543 1543 1543 1543 1542 1543 1543 1543 1543 1543 1543 1543 1542 1542 1542 1542 1543 1543 1543 1542 1542 1542 1542 1543 1543 1543 1544 1544 1545 1545 1545 1546 1546
1544 1543 1543 1543 1543 1543 1542 1542 1541 1541 1541 1541 1540 1540 1539 1539 1539 1539 1539 1539 1539 1539 1538 1538 1538 1539 1539 1539 1539 1539 1539 1539 1539 1539 1540 1540 1541 1541 1541 1541 1541 1542 1542
1543 1543 1542 1542 1542 1541 1541 1540 1540 1539 1539 1538 1537 1537 1536 1536 1535 1535 1535 1535 1535 1534 1534 1534 1535 1535 1536 1536 1536 1537 1537 1537 1536 1537 1537 1537 1538 1538 1538 1538 1538 1538 1538
1543 1542 1542 1541 1541 1540 1539 1539 1538 1538 1537 1536 1536 1535 1534 1533 1532 1532 1532 1531 1531 1531 1532 1532 1532 1533 1533 1533 1534 1534 1534 1534 1534 1534 1534 1534 1535 1535 1535 1535 1535 1535 1535
1543 1542 1541 1541 1540 1539 1539 1538 1537 1537 1536 1535 1534 1533 1532 1531 1531 1530 1529 1529 1529 1529 1529 1530 1530 1530 1530 1531 1531 1531 1532 1532 1532 1532 1532 1532 1533 1533 1533 1533 1533 1532 1532
1543 1542 1542 1541 1540 1539 1538 1538 1537 1536 1535 1534 1533 1532 1531 1531 1530 1530 1529 1528 1528 1528 1528 1528 1528 1528 1528 1529 1529 1530 1530 1530 1530 1531 1531 1531 1531 1531 1531 1531 1531 1531 1531
1543 1543 1542 1541 1540 1539 1539 1538 1537 1536 1535 1534 1533 1532 1531 1531 1530 1530 1529 1529 1529 1528 1528 1527 1527 1527 1527 1527 1527 1528 1528 1528 1529 1530 1530 1530 1530 1530 1530 1530 1530 1529 1529
1544 1543 1543 1542 1541 1540 1539 1538 1537 1536 1535 1534 1534 1533 1532 1531 1531 1530 1530 1529 1529 1529 1529 1528 1527 1526 1525 1525 1525 1526 1526 1527 1528 1528 1529 1529 1529 1529 1529 1529 1529 1529 1528
1544 1544 1543 1543 1542 1541 1540 1539 1538 1537 1536 1536 1535 1534 1534 1533 1533 1532 1531 1531 1530 1529 1529 1528 1527 1526 1525 1524 1524 1525 1526 1527 1527 1528 1529 1529 1529 1529 1529 1529 1529 1529 1528
1545 1544 1544 1544 1543 1542 1542 1541 1540 1539 1538 1537 1537 1536 1536 1535 1535 1534 1533 1532 1532 1531 1531 1530 1529 1528 1527 1526 1525 1526 1526 1526 1527 1528 1529 1529 1529 1529 1529 1529 1529 1529 1528
1546 1545 1545 1545 1545 1544 1544 1543 1542 1541 1540 1539 1539 1538 1538 1538 1537 1536 1536 1535 1534 1534 1533 1532 1531 1530 1529 1528 1528 1528 1528 1527 1527 1528 1529 1529 1529 1529 1529 1530 1529 1529 1528